EST,Max TemperatureF,Mean TemperatureF,Min TemperatureF,Max Dew PointF,MeanDew PointF,Min DewpointF,Max Humidity, Mean Humidity, Min Humidity, Max Sea Level PressureIn, Mean Sea Level PressureIn, Min Sea Level PressureIn, Max VisibilityMiles, Mean VisibilityMiles, Min VisibilityMiles, Max Wind SpeedMPH, Mean Wind SpeedMPH, Max Gust SpeedMPH,PrecipitationIn, CloudCover, Events, WindDirDegrees
2011-12-1,52,43,34,,,,,,,,,,,,,18,8,25,0.00,,,
2011-12-2,55,43,30,,,,,,,,,,,,,14,4,21,0.00,,,
2011-12-3,48,40,31,28,27,25,70,60,49,30.67,30.65,30.63,10,10,10,9,3,14,0.00,0,,45
2011-12-4,57,44,31,41,38,30,81,65,58,30.55,30.50,30.45,10,10,10,16,3,18,0.00,1,,225
2011-12-5,58,50,41,48,46,43,93,87,72,30.36,30.33,30.26,8,3,0,14,2,18,0.01,4,Fog,200
2011-12-6,63,59,55,61,58,55,97,91,84,30.08,29.98,29.91,10,7,4,12,8,16,0.10,8,Rain,237
2011-12-7,63,52,41,59,54,37,97,90,82,29.88,29.69,29.45,9,3,2,26,8,39,2.06,8,Rain,354
2011-12-8,47,40,32,36,28,21,86,66,45,30.32,30.00,29.52,10,10,6,24,9,37,0.10,4,Rain,325
2011-12-9,53,41,29,40,34,26,86,73,59,30.34,30.27,30.19,10,8,5,15,4,20,0.00,3,,247
2011-12-10,46,38,29,35,25,15,85,63,40,30.50,30.31,30.18,10,10,8,16,6,23,0.00,1,,349
2011-12-11,41,32,23,21,19,16,81,59,37,30.66,30.60,30.51,10,10,10,8,2,12,0.00,0,,340
2011-12-12,45,34,22,22,20,17,81,57,33,30.61,30.53,30.45,10,9,7,6,1,9,0.00,0,,344
2011-12-13,50,38,26,25,22,20,81,56,31,30.42,30.37,30.31,10,9,6,13,5,17,0.00,0,,339
2011-12-14,51,41,31,39,32,25,76,63,50,30.40,30.36,30.29,10,10,9,10,4,14,0.00,6,,261
2011-12-15,61,54,46,49,44,39,82,68,53,30.27,30.00,29.78,10,10,8,22,10,28,T,5,,221
2011-12-16,60,51,41,49,28,21,72,53,34,30.13,30.04,29.78,10,10,10,24,9,36,T,0,,321
2011-12-17,44,37,30,26,22,15,69,57,45,30.16,30.12,30.08,10,10,10,15,7,22,0.00,4,,346
2011-12-18,35,30,24,16,12,7,68,50,32,30.32,30.24,30.15,10,10,2,15,6,20,0.00,1,,4
2011-12-19,49,36,22,30,25,16,88,67,45,30.27,30.13,29.99,10,9,5,24,7,30,T,3,,250
2011-12-20,50,45,40,38,34,30,92,71,50,30.20,30.13,30.00,10,9,7,15,4,20,0.15,8,Rain,3
2011-12-21,63,52,40,57,47,37,93,87,80,30.12,29.90,29.71,10,6,2,32,6,60,0.28,7,Rain,260
2011-12-22,60,55,49,44,40,38,71,59,46,30.10,30.01,29.85,10,10,6,17,6,24,0.10,1,Rain,322
2011-12-23,52,45,38,45,39,25,86,70,53,30.22,29.96,29.76,10,8,2,18,9,24,0.95,7,Rain,11
2011-12-24,40,33,26,25,19,17,69,55,40,30.46,30.37,30.20,10,10,10,16,5,21,0.00,2,,10
2011-12-25,49,38,26,33,27,17,76,65,53,30.38,30.17,29.91,10,10,8,17,4,23,0.00,2,,248
2011-12-26,50,41,31,31,26,24,72,56,39,30.28,30.15,29.91,10,10,10,23,8,31,0.00,1,,339
2011-12-27,60,45,30,55,42,24,89,76,63,30.19,29.67,29.34,10,7,2,31,6,43,0.67,5,Rain,190
2011-12-28,49,40,31,40,25,13,76,59,41,29.88,29.63,29.41,10,10,10,29,13,40,0.00,4,,302
2011-12-29,38,32,26,27,16,12,70,53,35,30.05,29.99,29.89,10,10,10,16,6,23,T,3,,297
2011-12-30,53,41,29,39,31,25,89,70,50,30.04,29.98,29.91,10,10,8,8,2,12,0.00,2,,148
2011-12-31,58,50,41,42,39,37,89,72,55,30.05,29.88,29.81,10,10,8,15,5,20,0.00,4,,307